Weather in Knyaginino

Russia / Nizhny Novgorod Oblast'     55°49′14″N   45°01′56″E
В апреле 2022 года жителям России запретили посещать сайт meteo.paraplan.net по решению Генеральной прокуратуры. Аудитория сайта уменьшилась в 10 раз. Владельцы сайта не видят смысла в поддержке погодного сервера в таких условиях. Сайт будет закрыт в октябре.
temp.,
°C
wind,
m/s
gust,
m/s
humid.,
%
clouds,
%
prec.,
mm/h
press.,
hPa
HPBL,
m
25 september, sun
sun2500:00+8sse410832 0.0 1006323
03:00+7s41084100 0.0 1007268
06:00+6sse389099 0.0 1007176
09:00+10sse5769100 0.0 1007531
12:00+14sse45547 0.0 10061372
15:00+14se2454100 0.1 1004634
18:00+12e0159100 0.1 100410
21:00+10w2369100 0.1 100398
26 september, mon
mon2600:00+8wsw4884100 0.0 1003290
03:00+7wsw4785100 0.0 1002298
06:00+7wsw3689100 0.1 1003282
09:00+8sw4691100 1.4 1004234
12:00+9wsw4788100 2.6 1006736
15:00+9wsw3789100 3.4 1008478
18:00+8sw3688100 0.5 1010174
21:00+8ssw2489100 0.5 1011117
27 september, tue
tue2700:00+8ssw128494 0.1 101219
03:00+8sse1186100 0.1 101330
06:00+6sse23928 0.0 101459
09:00+9sse34795 0.0 1015380
12:00+12se456120 0.0 10151193
15:00+12se455771 0.3 10151237
18:00+10e367255 0.2 1016160
21:00+8ese488556 0.3 1016226
28 september, wed
wed2800:00+6e4109567 0.0 1016235
03:00+6e51097100 0.0 1016258
06:00+6e61293100 0.0 1015382
09:00+7e81590100 0.1 1015616
12:00+7e81591100 1.4 1014721
15:00+7e91694100 4.6 1013687
18:00+8ese91695100 3.7 1012670
21:00+8ese81595100 5.8 1012581
29 september, thu
thu2900:00+8ese91695100 4.1 1011611
03:00+7ese91696100 10.2 1010680
06:00+7ese81596100 1.6 1011587
09:00+8ese71394100 1.7 1012589
12:00+8ese71293100 0.1 1013519
15:00+7e61094100 0.6 1015461
18:00+7e51095100 0.2 1018413
21:00+7e5996100 0.3 1019378